DAWBF EDRY-EDAB

Flight info

Callsign DAWBF
Flight time 0h 50m
Altitude 39000
Route UMDAS Z12 SULUS DCT PIKIB Z715 RIKLU
Aircraft CL60/M-SADE3FGHIJ1J3J4J7P2RWXY/HB1D1

Departure

Time 2026-05-07 13:39
Airport Speyer Airfield (EDRY)

Arrival

Time 2026-05-07 14:30
Airport Bautzen Airfield (EDAB)
Time Latitude Longitude Altitude Speed Heading
2026-05-07 13:00 49.30380 8.45386 320 ft 0 kts 256°
2026-05-07 13:33 49.30374 8.45367 320 ft 9 kts 224°
2026-05-07 13:33 49.30310 8.45366 320 ft 10 kts 167°
2026-05-07 13:33 49.30249 8.45390 320 ft 6 kts 165°
2026-05-07 13:33 49.30191 8.45414 320 ft 10 kts 165°
2026-05-07 13:34 49.30104 8.45449 320 ft 14 kts 165°
2026-05-07 13:34 49.29873 8.45545 321 ft 18 kts 165°
2026-05-07 13:34 49.29752 8.45592 321 ft 16 kts 166°
2026-05-07 13:35 49.29669 8.45625 321 ft 10 kts 164°
2026-05-07 13:35 49.29610 8.45640 321 ft 6 kts 211°
2026-05-07 13:35 49.29590 8.45557 321 ft 9 kts 249°
2026-05-07 13:35 49.29534 8.45553 322 ft 9 kts 175°
2026-05-07 13:36 49.29491 8.45548 322 ft 5 kts 147°
2026-05-07 13:36 49.29498 8.45577 322 ft 3 kts 334°
2026-05-07 13:36 49.29509 8.45569 322 ft 0 kts 343°
2026-05-07 13:38 49.29525 8.45563 321 ft 24 kts 343°
2026-05-07 13:38 49.30093 8.45331 321 ft 137 kts 345°
2026-05-07 13:39 49.31210 8.44894 794 ft 184 kts 344°
2026-05-07 13:39 49.32471 8.44550 1829 ft 182 kts 356°
2026-05-07 13:39 49.33669 8.44871 2226 ft 171 kts 17°
2026-05-07 13:39 49.34779 8.45474 2266 ft 168 kts 19°
2026-05-07 13:40 49.35864 8.46208 2266 ft 170 kts 22°
2026-05-07 13:40 49.36932 8.46991 2268 ft 170 kts 23°
2026-05-07 13:40 49.38001 8.47773 2268 ft 170 kts 23°
2026-05-07 13:40 49.39074 8.48561 2272 ft 170 kts 23°
2026-05-07 13:41 49.40057 8.49279 2273 ft 169 kts 23°
2026-05-07 13:41 49.41126 8.50065 2274 ft 170 kts 23°
2026-05-07 13:41 49.42117 8.51048 2272 ft 179 kts 45°
2026-05-07 13:41 49.42574 8.52983 2488 ft 217 kts 89°
2026-05-07 13:42 49.42375 8.55523 2845 ft 257 kts 97°
2026-05-07 13:42 49.42086 8.58315 3527 ft 278 kts 97°
2026-05-07 13:42 49.41787 8.61257 4722 ft 285 kts 97°
2026-05-07 13:42 49.41481 8.64249 5673 ft 280 kts 97°
2026-05-07 13:43 49.41183 8.67162 6618 ft 280 kts 98°
2026-05-07 13:43 49.40881 8.70128 7553 ft 284 kts 98°
2026-05-07 13:43 49.40579 8.73098 8516 ft 288 kts 98°
2026-05-07 13:43 49.40269 8.76138 9511 ft 293 kts 98°
2026-05-07 13:44 49.39952 8.79246 10502 ft 302 kts 98°
2026-05-07 13:44 49.39908 8.82591 11285 ft 324 kts 78°
2026-05-07 13:44 49.40737 8.85849 11959 ft 339 kts 60°
2026-05-07 13:44 49.41681 8.89189 12614 ft 345 kts 75°
2026-05-07 13:45 49.42021 8.92858 13200 ft 349 kts 82°
2026-05-07 13:45 49.42297 8.96574 13743 ft 351 kts 82°
2026-05-07 13:45 49.42582 9.00314 13979 ft 353 kts 82°
2026-05-07 13:45 49.42868 9.04036 14015 ft 353 kts 82°
2026-05-07 13:46 49.43158 9.07783 14012 ft 351 kts 81°
2026-05-07 13:46 49.43796 9.11328 14063 ft 345 kts 60°
2026-05-07 13:46 49.45079 9.14444 14516 ft 346 kts 54°
2026-05-07 13:46 49.46408 9.17595 15372 ft 359 kts 55°
2026-05-07 13:47 49.47754 9.20808 16559 ft 360 kts 55°
2026-05-07 13:47 49.49101 9.24026 17726 ft 361 kts 55°
2026-05-07 13:47 49.50453 9.27265 18725 ft 365 kts 55°
2026-05-07 13:47 49.51838 9.30580 19577 ft 372 kts 55°
2026-05-07 13:48 49.53243 9.33946 20435 ft 378 kts 55°
2026-05-07 13:48 49.54670 9.37374 21276 ft 384 kts 56°
2026-05-07 13:48 49.56099 9.40809 22114 ft 388 kts 56°
2026-05-07 13:48 49.57571 9.44350 22899 ft 393 kts 56°
2026-05-07 13:49 49.59048 9.47910 23691 ft 399 kts 56°
2026-05-07 13:49 49.60557 9.51552 24508 ft 402 kts 56°
2026-05-07 13:49 49.62046 9.55151 25298 ft 406 kts 55°
2026-05-07 13:49 49.63570 9.58839 26083 ft 408 kts 55°
2026-05-07 13:50 49.65120 9.62594 26821 ft 411 kts 55°
2026-05-07 13:50 49.66649 9.66363 27617 ft 412 kts 58°
2026-05-07 13:50 49.67944 9.70158 28943 ft 399 kts 62°
2026-05-07 13:50 49.69181 9.73945 30110 ft 389 kts 61°
2026-05-07 13:51 49.70380 9.77616 30983 ft 385 kts 62°
2026-05-07 13:51 49.71292 9.81544 31519 ft 391 kts 77°
2026-05-07 13:51 49.71533 9.85717 31848 ft 399 kts 86°
2026-05-07 13:51 49.71805 9.90024 32176 ft 403 kts 78°
2026-05-07 13:52 49.72485 9.94175 32532 ft 404 kts 70°
2026-05-07 13:52 49.73586 9.98162 32863 ft 406 kts 60°
2026-05-07 13:52 49.75084 10.01884 33142 ft 409 kts 53°
2026-05-07 13:52 49.76756 10.05486 33427 ft 413 kts 53°
2026-05-07 13:53 49.78420 10.09075 33699 ft 416 kts 53°
2026-05-07 13:53 49.80117 10.12744 33996 ft 419 kts 53°
2026-05-07 13:53 49.81808 10.16403 34315 ft 420 kts 53°
2026-05-07 13:53 49.83507 10.20086 34670 ft 421 kts 53°
2026-05-07 13:54 49.85208 10.23778 35012 ft 422 kts 53°
2026-05-07 13:54 49.86898 10.27454 35352 ft 423 kts 53°
2026-05-07 13:54 49.88607 10.31172 35697 ft 424 kts 53°
2026-05-07 13:54 49.90311 10.34888 36031 ft 425 kts 53°
2026-05-07 13:55 49.92017 10.38613 36366 ft 425 kts 53°
2026-05-07 13:55 49.93728 10.42368 36690 ft 426 kts 54°
2026-05-07 13:55 49.95425 10.46103 36978 ft 427 kts 54°
2026-05-07 13:55 49.97128 10.49857 37253 ft 428 kts 54°
2026-05-07 13:56 49.98846 10.53649 37533 ft 429 kts 54°
2026-05-07 13:56 50.00568 10.57455 37778 ft 430 kts 54°
2026-05-07 13:56 50.02270 10.61222 38023 ft 431 kts 54°
2026-05-07 13:56 50.03992 10.65040 38259 ft 432 kts 54°
2026-05-07 13:57 50.05732 10.68903 38496 ft 433 kts 55°
2026-05-07 13:57 50.07392 10.72759 38763 ft 434 kts 60°
2026-05-07 13:57 50.08743 10.76950 38987 ft 435 kts 66°
2026-05-07 13:58 50.11241 10.85570 38996 ft 437 kts 66°
2026-05-07 13:58 50.13736 10.94186 38993 ft 434 kts 66°
2026-05-07 13:59 50.16217 11.02784 38995 ft 433 kts 66°
2026-05-07 13:59 50.18675 11.11328 38992 ft 433 kts 66°
2026-05-07 14:00 50.21122 11.19858 38994 ft 433 kts 66°
2026-05-07 14:00 50.23581 11.28464 38989 ft 433 kts 66°
2026-05-07 14:01 50.26018 11.37018 38981 ft 433 kts 66°
2026-05-07 14:01 50.28458 11.45614 38977 ft 433 kts 66°
2026-05-07 14:02 50.30886 11.54198 38981 ft 433 kts 66°
2026-05-07 14:02 50.33315 11.62814 38988 ft 433 kts 66°
2026-05-07 14:03 50.35735 11.71432 38983 ft 433 kts 67°
2026-05-07 14:03 50.38139 11.80025 38994 ft 432 kts 67°
2026-05-07 14:04 50.40545 11.88651 38992 ft 433 kts 67°
2026-05-07 14:04 50.42941 11.97280 38976 ft 433 kts 67°
2026-05-07 14:05 50.45341 12.05948 38980 ft 432 kts 67°
2026-05-07 14:05 50.47722 12.14582 38975 ft 432 kts 67°
2026-05-07 14:06 50.50110 12.23275 38499 ft 440 kts 67°
2026-05-07 14:06 50.51322 12.27702 38011 ft 440 kts 67°
2026-05-07 14:06 50.52531 12.32122 37428 ft 443 kts 68°
2026-05-07 14:06 50.53745 12.36572 36806 ft 446 kts 67°
2026-05-07 14:07 50.54954 12.41012 36225 ft 447 kts 67°
2026-05-07 14:07 50.56179 12.45519 35624 ft 448 kts 67°
2026-05-07 14:07 50.57393 12.49991 35034 ft 448 kts 67°
2026-05-07 14:07 50.58618 12.54515 34442 ft 447 kts 67°
2026-05-07 14:08 50.59831 12.59003 33885 ft 447 kts 67°
2026-05-07 14:08 50.61037 12.63476 33278 ft 449 kts 67°
2026-05-07 14:08 50.62247 12.67967 32659 ft 450 kts 67°
2026-05-07 14:08 50.63467 12.72506 32072 ft 447 kts 67°
2026-05-07 14:09 50.64682 12.77040 31447 ft 444 kts 66°
2026-05-07 14:09 50.65863 12.81449 30838 ft 438 kts 66°
2026-05-07 14:09 50.67033 12.85829 30308 ft 428 kts 66°
2026-05-07 14:09 50.68170 12.90096 29743 ft 420 kts 66°
2026-05-07 14:10 50.69294 12.94317 29173 ft 413 kts 66°
2026-05-07 14:10 50.70391 12.98448 28636 ft 407 kts 66°
2026-05-07 14:10 50.71473 13.02530 28129 ft 400 kts 66°
2026-05-07 14:10 50.72532 13.06528 27603 ft 394 kts 66°
2026-05-07 14:11 50.73585 13.10512 27080 ft 388 kts 66°
2026-05-07 14:11 50.74600 13.14361 26574 ft 383 kts 66°
2026-05-07 14:11 50.75623 13.18245 26066 ft 377 kts 66°
2026-05-07 14:11 50.76622 13.22044 25572 ft 373 kts 66°
2026-05-07 14:12 50.77598 13.25758 25082 ft 368 kts 66°
2026-05-07 14:12 50.78570 13.29468 24620 ft 363 kts 66°
2026-05-07 14:12 50.79534 13.33150 24113 ft 360 kts 65°
2026-05-07 14:12 50.80486 13.36791 23636 ft 357 kts 65°
2026-05-07 14:13 50.81415 13.40354 23179 ft 353 kts 66°
2026-05-07 14:13 50.82351 13.43946 22700 ft 350 kts 69°
2026-05-07 14:13 50.83268 13.47471 22245 ft 346 kts 69°
2026-05-07 14:13 50.84184 13.50993 21785 ft 343 kts 69°
2026-05-07 14:14 50.85087 13.54472 21329 ft 343 kts 69°
2026-05-07 14:14 50.85982 13.57930 20874 ft 343 kts 69°
2026-05-07 14:14 50.86879 13.61397 20426 ft 342 kts 69°
2026-05-07 14:14 50.87779 13.64882 19976 ft 339 kts 69°
2026-05-07 14:15 50.88671 13.68344 19528 ft 337 kts 69°
2026-05-07 14:15 50.89611 13.71736 19085 ft 336 kts 63°
2026-05-07 14:15 50.90779 13.74934 18629 ft 336 kts 60°
2026-05-07 14:15 50.91964 13.78109 18187 ft 334 kts 60°
2026-05-07 14:16 50.93118 13.81281 17757 ft 332 kts 64°
2026-05-07 14:16 50.94044 13.84645 17290 ft 331 kts 69°
2026-05-07 14:16 50.94890 13.87987 16859 ft 329 kts 69°
2026-05-07 14:16 50.95747 13.91357 16401 ft 327 kts 69°
2026-05-07 14:17 50.96593 13.94690 15997 ft 326 kts 69°
2026-05-07 14:17 50.97435 13.98011 15548 ft 325 kts 69°
2026-05-07 14:17 50.98277 14.01333 15125 ft 323 kts 69°
2026-05-07 14:17 50.99113 14.04633 14691 ft 323 kts 69°
2026-05-07 14:18 50.99943 14.07916 14268 ft 322 kts 69°
2026-05-07 14:18 51.00783 14.11244 13825 ft 321 kts 69°
2026-05-07 14:18 51.01608 14.14516 13390 ft 319 kts 69°
2026-05-07 14:18 51.02425 14.17758 12990 ft 317 kts 69°
2026-05-07 14:19 51.03234 14.20973 12558 ft 315 kts 69°
2026-05-07 14:19 51.04043 14.24194 12141 ft 313 kts 69°
2026-05-07 14:19 51.04844 14.27387 11732 ft 310 kts 69°
2026-05-07 14:19 51.05641 14.30567 11322 ft 308 kts 69°
2026-05-07 14:20 51.06428 14.33712 10920 ft 306 kts 69°
2026-05-07 14:20 51.07213 14.36853 10521 ft 304 kts 69°
2026-05-07 14:20 51.07983 14.39941 10120 ft 302 kts 69°
2026-05-07 14:20 51.08758 14.43047 9729 ft 300 kts 69°
2026-05-07 14:21 51.09519 14.46106 9335 ft 298 kts 69°
2026-05-07 14:21 51.10283 14.49178 8939 ft 296 kts 69°
2026-05-07 14:21 51.11031 14.52192 8554 ft 293 kts 69°
2026-05-07 14:21 51.11776 14.55200 8168 ft 290 kts 69°
2026-05-07 14:22 51.12356 14.58257 7783 ft 286 kts 77°
2026-05-07 14:22 51.12813 14.61320 7404 ft 282 kts 77°
2026-05-07 14:22 51.13264 14.64317 7030 ft 277 kts 76°
2026-05-07 14:22 51.13710 14.67291 6669 ft 273 kts 77°
2026-05-07 14:23 51.14145 14.70191 6309 ft 268 kts 77°
2026-05-07 14:23 51.14629 14.73029 5956 ft 264 kts 73°
2026-05-07 14:23 51.15143 14.75793 5609 ft 259 kts 73°
2026-05-07 14:23 51.15681 14.78528 5253 ft 255 kts 68°
2026-05-07 14:24 51.16639 14.80839 4823 ft 252 kts 43°
2026-05-07 14:24 51.18080 14.82292 4420 ft 241 kts 18°
2026-05-07 14:24 51.19693 14.82685 3959 ft 234 kts 355°
2026-05-07 14:24 51.21250 14.82167 3590 ft 225 kts 343°
2026-05-07 14:25 51.22639 14.81159 3337 ft 214 kts 324°
2026-05-07 14:25 51.23561 14.79474 3224 ft 191 kts 298°
2026-05-07 14:25 51.23872 14.77553 3166 ft 169 kts 276°
2026-05-07 14:25 51.23789 14.75826 3107 ft 147 kts 261°
2026-05-07 14:26 51.23533 14.74258 2989 ft 150 kts 256°
2026-05-07 14:26 51.23228 14.72634 2954 ft 153 kts 256°
2026-05-07 14:26 51.22923 14.71003 2963 ft 153 kts 255°
2026-05-07 14:26 51.22622 14.69393 2922 ft 154 kts 256°
2026-05-07 14:27 51.22320 14.67774 2680 ft 142 kts 257°
2026-05-07 14:27 51.22051 14.66340 2516 ft 135 kts 256°
2026-05-07 14:27 51.21790 14.64935 2257 ft 128 kts 257°
2026-05-07 14:27 51.21531 14.63546 2064 ft 131 kts 257°
2026-05-07 14:28 51.21276 14.62182 1867 ft 129 kts 256°
2026-05-07 14:28 51.21014 14.60787 1679 ft 132 kts 258°
2026-05-07 14:28 51.20758 14.59407 1455 ft 127 kts 256°
2026-05-07 14:28 51.20495 14.58007 1229 ft 140 kts 257°
2026-05-07 14:29 51.20222 14.56560 1043 ft 130 kts 257°
2026-05-07 14:29 51.19946 14.55180 820 ft 130 kts 256°
2026-05-07 14:29 51.19690 14.53789 625 ft 131 kts 256°
2026-05-07 14:29 51.19447 14.52496 555 ft 109 kts 257°
2026-05-07 14:30 51.19291 14.51639 565 ft 34 kts 254°
2026-05-07 14:30 51.19243 14.51411 569 ft 7 kts 240°
2026-05-07 14:30 51.19191 14.51380 570 ft 10 kts 162°
2026-05-07 14:30 51.19122 14.51414 570 ft 12 kts 165°
2026-05-07 14:31 51.19056 14.51442 571 ft 5 kts 166°
2026-05-07 14:31 51.19030 14.51467 571 ft 3 kts 101°
2026-05-07 14:31 51.19040 14.51531 569 ft 4 kts 80°
2026-05-07 14:31 51.19012 14.51537 570 ft 4 kts 238°
2026-05-07 14:32 51.19011 14.51533 570 ft 0 kts 255°